Owosso, MI

11:30 AM EDT on July 28, 2017 (GMT -0400)
Owosso

Weather History for KRNP - March, 2013

Change the Weather History Date:

Saturday, March 30, 2013

  Actual Average (KFNT) Record (KFNT)
Temperature  
Mean Temperature 41 °F -  
Max Temperature 56 °F 49 °F 79 °F (1998)
Min Temperature 26 °F 32 °F 4 °F (1954)
Degree Days  
Heating Degree Days 24    
Moisture  
Dew Point 18 °F    
Average Humidity 45    
Maximum Humidity 88    
Minimum Humidity 12    
Precipitation  
Precipitation 0.00 in - - ()
Sea Level Pressure  
Sea Level Pressure 30.09 in    
Wind  
Wind Speed 4 mph (SSW)    
Max Wind Speed 13 mph    
Max Gust Speed 17 mph    
Visibility 10 miles    
Events      
Averages and records for this station are not official NWS values.
T = Trace of Precipitation, MM = Missing Value Source: NWS Daily Summary

Daily Weather History Graph

Daily Weather History Graph

Search for Another Location

Airport or City:

Trip Planner

Search our weather history database for the weather conditions in past years. The results will help you decide how hot, cold, wet, or windy it might be!

Date:

Astronomy

Mar. 30, 2013 Rise Set
Actual Time 7:21 AM EDT 8:00 PM EDT
Civil Twilight 6:53 AM EDT 8:29 PM EDT
Nautical Twilight 6:19 AM EDT 9:03 PM EDT
Astronomical Twilight 5:44 AM EDT 9:38 PM EDT
Moon No Moon Rise 9:10 AM EDT (3/30)
Length of Visible Light 13h 36m
Length of Day
12h 39m
Waning Gibbous, 86% of the Moon is Illuminated
Mar 30
Waning Gibbous
Apr 3
Last Quarter
Apr 10
New
Apr 18
First Quarter
Apr 25
Full

Hourly Weather History & Observations

Time (EDT) Temp. Windchill Dew Point Humidity Pressure Visibility Wind Dir Wind Speed Gust Speed Precip Events Conditions
12:15 AM 36.9 °F 33.1 °F 20.5 °F 52% 30.21 in 10.0 mi West 4.6 mph - N/A   Clear
12:35 AM 37.0 °F 32.4 °F 19.9 °F 50% 30.21 in 10.0 mi West 5.8 mph - N/A   Clear
12:54 AM 35.6 °F 31.7 °F 20.3 °F 54% 30.20 in 10.0 mi West 4.6 mph - N/A   Clear
1:15 AM 34.3 °F 30.2 °F 19.9 °F 56% 30.20 in 10.0 mi West 4.6 mph - N/A   Clear
1:35 AM 34.7 °F 31.8 °F 19.9 °F 55% 30.20 in 10.0 mi West 3.5 mph - N/A   Clear
2:15 AM 32.7 °F 29.6 °F 20.7 °F 61% 30.20 in 10.0 mi WSW 3.5 mph - N/A   Clear
2:34 AM 32.9 °F 28.5 °F 20.8 °F 61% 30.20 in 10.0 mi WSW 4.6 mph - N/A   Clear
2:55 AM 32.7 °F - 22.1 °F 65% 30.20 in 10.0 mi Calm Calm - N/A   Clear
3:15 AM 32.9 °F - 20.5 °F 60% 30.20 in 10.0 mi Calm Calm - N/A   Clear
3:34 AM 31.6 °F - 20.8 °F 64% 30.20 in 10.0 mi Calm Calm - N/A   Clear
3:55 AM 30.7 °F - 20.8 °F 67% 30.19 in 10.0 mi Calm Calm - N/A   Clear
4:15 AM 29.8 °F - 21.2 °F 70% 30.19 in 10.0 mi Calm Calm - N/A   Clear
4:34 AM 28.9 °F - 21.7 °F 74% 30.19 in 10.0 mi Calm Calm - N/A   Clear
4:55 AM 28.4 °F - 22.1 °F 77% 30.19 in 10.0 mi Calm Calm - N/A   Clear
5:15 AM 27.9 °F - 21.9 °F 78% 30.19 in 10.0 mi Calm Calm - N/A   Clear
5:34 AM 27.5 °F - 22.3 °F 81% 30.19 in 10.0 mi Calm Calm - N/A   Clear
5:55 AM 26.8 °F - 21.9 °F 82% 30.19 in 10.0 mi Calm Calm - N/A   Clear
6:15 AM 27.3 °F - 23.0 °F 84% 30.19 in 10.0 mi Calm Calm - N/A   Clear
6:34 AM 27.1 °F - 23.5 °F 86% 30.19 in 10.0 mi Calm Calm - N/A   Clear
6:55 AM 26.2 °F - 22.6 °F 86% 30.19 in 10.0 mi Calm Calm - N/A   Clear
7:14 AM 26.8 °F - 23.0 °F 86% 30.19 in 10.0 mi Calm Calm - N/A   Clear
7:35 AM 26.4 °F - 23.2 °F 88% 30.19 in 10.0 mi Calm Calm - N/A   Clear
7:55 AM 26.4 °F - 23.4 °F 88% 30.20 in 10.0 mi Calm Calm - N/A   Clear
8:14 AM 27.7 °F - 24.6 °F 88% 30.20 in 10.0 mi Calm Calm - N/A   Clear
8:35 AM 31.6 °F - 28.0 °F 87% 30.20 in 10.0 mi Calm Calm - N/A   Clear
8:55 AM 33.6 °F 30.6 °F 27.3 °F 78% 30.19 in 10.0 mi WSW 3.5 mph - N/A   Clear
9:14 AM 35.1 °F 32.2 °F 27.1 °F 73% 30.19 in 10.0 mi SW 3.5 mph - N/A   Clear
9:35 AM 37.4 °F 34.9 °F 26.4 °F 65% 30.18 in 10.0 mi WSW 3.5 mph - N/A   Clear
9:55 AM 39.2 °F 37.0 °F 25.9 °F 59% 30.17 in 10.0 mi SSW 3.5 mph - N/A   Clear
10:15 AM 40.8 °F - 24.6 °F 53% 30.17 in 10.0 mi Calm Calm - N/A   Clear
10:35 AM 43.2 °F - 24.3 °F 47% 30.16 in 10.0 mi Calm Calm - N/A   Clear
10:54 AM 43.5 °F 41.9 °F 23.7 °F 46% 30.16 in 10.0 mi SSE 3.5 mph - N/A   Clear
11:15 AM 45.5 °F 43.2 °F 21.7 °F 39% 30.15 in 10.0 mi South 4.6 mph - N/A   Clear
11:35 AM 46.6 °F - 20.7 °F 36% 30.14 in 10.0 mi South 5.8 mph - N/A   Clear
11:54 AM 48.6 °F - 18.3 °F 30% 30.13 in 10.0 mi SSE 10.4 mph - N/A   Clear
12:15 PM 48.9 °F - 13.8 °F 25% 30.12 in 10.0 mi South 10.4 mph - N/A   Clear
12:35 PM 50.0 °F - 13.6 °F 23% 30.12 in 10.0 mi SSW 11.5 mph 17.3 mph N/A   Clear
12:55 PM 50.2 °F - 15.6 °F 25% 30.11 in 10.0 mi SSW 10.4 mph 16.1 mph N/A   Clear
1:15 PM 50.7 °F - 13.3 °F 22% 30.11 in 10.0 mi SSW 9.2 mph 17.3 mph N/A   Clear
1:34 PM 51.8 °F - 12.9 °F 21% 30.10 in 10.0 mi SW 11.5 mph 16.1 mph N/A   Clear
1:55 PM 52.5 °F - 11.8 °F 20% 30.09 in 10.0 mi SSW 11.5 mph 16.1 mph N/A   Clear
2:15 PM 53.6 °F - 8.8 °F 17% 30.08 in 10.0 mi SSE 11.5 mph - N/A   Clear
2:34 PM 53.6 °F - 8.2 °F 16% 30.07 in 10.0 mi SW 10.4 mph 16.1 mph N/A   Clear
2:55 PM 54.0 °F - 6.8 °F 15% 30.06 in 10.0 mi South 10.4 mph 16.1 mph N/A   Clear
3:15 PM 54.5 °F - 6.8 °F 15% 30.05 in 10.0 mi SW 8.1 mph - N/A   Clear
3:34 PM 55.0 °F - 3.7 °F 13% 30.04 in 10.0 mi SSW 12.7 mph 17.3 mph N/A   Clear
3:55 PM 55.0 °F - 3.6 °F 12% 30.03 in 10.0 mi SSW 11.5 mph 17.3 mph N/A   Clear
4:15 PM 55.6 °F - 6.3 °F 14% 30.02 in 10.0 mi SSW 9.2 mph - N/A   Clear
4:34 PM 55.6 °F - 8.1 °F 15% 30.01 in 10.0 mi SSW 11.5 mph 16.1 mph N/A   Clear
4:55 PM 55.4 °F - 4.8 °F 13% 30.00 in 10.0 mi SSW 11.5 mph - N/A   Clear
5:14 PM 55.4 °F - 7.0 °F 14% 29.99 in 10.0 mi SW 8.1 mph - N/A   Clear
5:35 PM 55.4 °F - 8.4 °F 15% 29.98 in 10.0 mi SSW 5.8 mph - N/A   Clear
5:55 PM 56.1 °F - 10.8 °F 17% 29.98 in 10.0 mi SSW 6.9 mph - N/A   Clear
6:14 PM 55.4 °F - 13.3 °F 19% 29.97 in 10.0 mi SSW 11.5 mph 16.1 mph N/A   Clear
6:35 PM 55.0 °F - 14.0 °F 20% 29.96 in 10.0 mi SSW 11.5 mph - N/A   Clear
6:55 PM 54.9 °F - 14.7 °F 21% 29.96 in 10.0 mi SSW 11.5 mph - N/A   Clear
7:14 PM 54.0 °F - 15.6 °F 22% 29.96 in 10.0 mi SSW 8.1 mph - N/A   Clear
7:35 PM 52.7 °F - 17.4 °F 25% 29.96 in 10.0 mi SSW 5.8 mph - N/A   Clear
7:55 PM 51.3 °F - 19.0 °F 28% 29.94 in 10.0 mi South 4.6 mph - N/A   Clear
8:14 PM 50.7 °F - 19.0 °F 29% 29.94 in 10.0 mi South 4.6 mph - N/A   Clear
8:35 PM 50.4 °F - 19.2 °F 29% 29.93 in 10.0 mi South 4.6 mph - N/A   Clear
8:55 PM 49.6 °F - 20.5 °F 32% 29.93 in 10.0 mi South 5.8 mph - N/A   Clear
9:14 PM 49.8 °F - 20.5 °F 32% 29.93 in 10.0 mi SSW 5.8 mph - N/A   Clear
9:35 PM 48.7 °F - 21.6 °F 34% 29.93 in 10.0 mi SSW 4.6 mph - N/A   Scattered Clouds
9:55 PM 48.0 °F - 22.1 °F 36% 29.93 in 10.0 mi South 4.6 mph - N/A   Clear
10:15 PM 48.2 °F - 22.5 °F 36% 29.92 in 10.0 mi South 3.5 mph - N/A   Scattered Clouds
10:35 PM 48.0 °F - 22.5 °F 37% 29.92 in 10.0 mi South 4.6 mph - N/A   Mostly Cloudy
10:54 PM 47.8 °F - 22.6 °F 37% 29.92 in 10.0 mi South 4.6 mph - N/A   Overcast
11:15 PM 47.5 °F - 23.2 °F 38% 29.91 in 10.0 mi South 3.5 mph - N/A   Overcast
11:34 PM 47.3 °F - 24.4 °F 41% 29.91 in 10.0 mi South 4.6 mph - N/A   Overcast
11:55 PM 46.8 °F - 25.7 °F 44% 29.90 in 10.0 mi South 5.8 mph - N/A   Overcast